[[{"header":{"parameterUnit":"m.s-1","parameterCategory":1,"la1":30.2992,"la2":30.254,"lo1":-89.0895,"lo2":-89.0443,"dy":0.0025,"dx":0.0025,"nx":19,"ny":19,"refTime":"2026-03-14T09:00:00:Z","depth":0,"parameterNumber":2,"parameterNumberName":"U-component_of_WINDS"},"data":[0,0,0,-2.6132,-2.6134,-2.6214,-2.6214,-2.6318,-2.6319,0,0,0,0,0,0,0,0,0,0,0,-2.6109,-2.611,-2.6132,-2.6134,-2.6214,-2.6214,-2.6317,-2.6319,0,0,0,0,0,0,0,0,0,0,0,-2.6108,-2.6109,-2.611,-2.6135,-2.6214,-2.6214,-2.6317,-2.6257,0,0,0,0,0,0,0,0,0,0,-2.6179,-2.6157,-2.6109,-2.611,-2.6135,-2.6214,-2.6214,-2.6254,-2.626,-2.6282,0,-2.6301,0,-2.6311,-2.6326,-2.6326,0,0,0,-2.6134,-2.6151,-2.6173,-2.611,-2.6136,-2.6214,-2.6178,-2.6257,-2.6265,-2.6291,-2.6302,-2.6306,-2.6313,-2.6326,-2.6327,-2.6452,-2.6452,0,0,-2.6129,-2.6123,-2.6168,-2.6178,-2.6166,-2.6175,-2.618,-2.6262,-2.6274,-2.6302,-2.6308,-2.6315,-2.6327,-2.6328,-2.6451,-2.6452,0,0,0,-2.6117,-2.612,-2.614,-2.6174,-2.6188,-2.6178,-2.6184,-2.627,-2.6277,-2.6309,-2.6316,-2.6328,-2.6329,-2.645,-2.6451,-2.6474,0,0,0,-2.6114,-2.6113,-2.6138,-2.6135,-2.6187,-2.623,-2.619,-2.6272,-2.6281,-2.6315,-2.6328,-2.633,-2.645,-2.6451,-2.6472,-2.6485,0,0,0,-2.6104,-2.6111,-2.6123,-2.6134,-2.6168,-2.6229,-2.6241,-2.6274,-2.6285,-2.6326,-2.633,-2.6449,-2.6451,-2.647,-2.6482,-2.6516,0,0,0,-2.609,-2.6142,-2.6123,-2.6184,-2.6168,-2.6243,-2.624,-2.6296,-2.6334,-2.6328,-2.645,-2.6451,-2.6469,-2.648,-2.6514,-2.6542,-2.6554,0,0,-2.6151,-2.6149,-2.6185,-2.6171,-2.6248,-2.6231,-2.6312,-2.6352,-2.6362,-2.6421,-2.6424,-2.6473,-2.6482,-2.6515,-2.6623,-2.6632,0,0,0,-2.6203,-2.6228,-2.625,-2.6286,-2.632,-2.6349,-2.6378,-2.6394,-2.6445,-2.6391,-2.6495,-2.6501,-2.652,-2.6534,-2.6542,-2.6559,-2.6458,-2.6457,-2.6457,-2.6279,-2.629,-2.6351,-2.6372,-2.6407,-2.6438,-2.6468,-2.6494,-2.6494,-2.6519,-2.6535,-2.6599,-2.6615,-2.6621,-2.6639,-2.6552,-2.6553,-2.6553,-2.6553,-2.6369,-2.6407,-2.6408,-2.6467,-2.6479,-2.6529,-2.6562,-2.6561,-2.6609,-2.6587,-2.6605,-2.6578,-2.663,-2.6647,-2.6555,-2.6554,-2.6554,-2.6554,-2.6554,-2.6419,-2.6439,-2.6458,-2.6513,-2.6554,-2.6575,-2.6622,-2.6631,-2.664,-2.6658,-2.6677,-2.6677,-2.6677,-2.6667,-2.6667,-2.6667,-2.6668,-2.6668,-2.6668,-2.6462,-2.6483,-2.6521,-2.6563,-2.6588,-2.6623,-2.6657,-2.6683,-2.6713,-2.6716,-2.6716,-2.6714,-2.6634,-2.6613,-2.6671,-2.6671,-2.667,-2.667,-2.667,-2.6546,-2.653,-2.6589,-2.6614,-2.6665,-2.6706,-2.6719,-2.677,-2.6793,-2.6816,-2.6811,-2.6751,-2.6749,-2.6743,-2.6725,-2.6809,-2.6809,-2.6809,-2.6809,-2.6587,-2.6588,-2.6651,-2.6692,-2.6734,-2.6752,-2.6819,-2.6848,-2.6874,-2.6889,-2.6879,-2.6857,-2.6851,-2.6852,-2.6843,-2.6827,-2.6935,-2.6935,-2.6935,-2.664,-2.6645,-2.67,-2.6726,-2.6767,-2.6802,-2.6867,-2.6914,-2.6941,-2.6941,-2.6901,-2.6895,-2.6861,-2.6849,-2.6845,-2.6832,-2.6802,0,0]},{"header":{"parameterUnit":"m.s-1","parameterCategory":1,"la1":30.2992,"la2":30.254,"lo1":-89.0895,"lo2":-89.0443,"dy":0.0025,"dx":0.0025,"nx":19,"ny":19,"refTime":"2026-03-14T09:00:00:Z","depth":0,"parameterNumber":3,"parameterNumberName":"V-component_of_WINDS"},"data":[0,0,0,2.6162,2.6163,2.6217,2.6218,2.6268,2.6268,0,0,0,0,0,0,0,0,0,0,0,2.6135,2.6135,2.6162,2.6163,2.6217,2.6218,2.6268,2.6268,0,0,0,0,0,0,0,0,0,0,0,2.6135,2.6135,2.6135,2.6163,2.6217,2.6218,2.6268,2.6234,0,0,0,0,0,0,0,0,0,0,2.6184,2.6149,2.6135,2.6135,2.6163,2.6217,2.6218,2.6232,2.6236,2.6236,0,2.6234,0,2.6252,2.6271,2.6271,0,0,0,2.6171,2.6146,2.617,2.6135,2.6164,2.6217,2.6195,2.6234,2.6238,2.624,2.6235,2.6237,2.6253,2.6271,2.6271,2.625,2.6249,0,0,2.6168,2.6139,2.6168,2.6172,2.6164,2.6193,2.6197,2.6237,2.6228,2.6235,2.6239,2.6254,2.6271,2.6271,2.625,2.6249,0,0,0,2.6154,2.6136,2.6161,2.617,2.6181,2.6195,2.6199,2.6227,2.6237,2.6239,2.6254,2.6271,2.6272,2.6251,2.625,2.62,0,0,0,2.6152,2.6128,2.6159,2.6142,2.618,2.6205,2.6187,2.6234,2.624,2.6254,2.6271,2.6272,2.6251,2.625,2.6202,2.618,0,0,0,2.6135,2.6127,2.6131,2.614,2.6163,2.6205,2.6218,2.6236,2.6249,2.6271,2.6272,2.6251,2.625,2.6205,2.6184,2.6167,0,0,0,2.6108,2.6084,2.613,2.6109,2.6162,2.6174,2.6218,2.6228,2.6241,2.6272,2.6251,2.625,2.6205,2.6187,2.6169,2.6146,2.6134,0,0,2.6062,2.6078,2.6068,2.611,2.6108,2.6168,2.6158,2.6196,2.6224,2.6239,2.6239,2.6202,2.6184,2.6167,2.6079,2.6069,0,0,0,2.6044,2.6036,2.6042,2.6054,2.6085,2.6109,2.6152,2.6167,2.6182,2.6226,2.6192,2.6182,2.6173,2.6164,2.6156,2.615,2.6244,2.6245,2.6245,2.5936,2.5975,2.5962,2.6007,2.6018,2.6065,2.6078,2.6105,2.6139,2.613,2.6135,2.6077,2.6064,2.6058,2.6052,2.6127,2.6126,2.6126,2.6126,2.5871,2.5867,2.5916,2.592,2.5961,2.5965,2.601,2.6034,2.6043,2.6076,2.607,2.6102,2.6047,2.6043,2.6123,2.6123,2.6124,2.6124,2.6124,2.5804,2.5809,2.5829,2.5852,2.5865,2.5913,2.592,2.5957,2.5991,2.5985,2.5994,2.5995,2.6,2.5987,2.5987,2.5987,2.5987,2.5987,2.5986,2.5726,2.575,2.5753,2.5785,2.5798,2.5821,2.5869,2.5883,2.5908,2.5934,2.5935,2.5969,2.6035,2.605,2.5983,2.5984,2.5984,2.5985,2.5985,2.5644,2.567,2.5673,2.5687,2.5728,2.5739,2.5788,2.5814,2.5831,2.5833,2.587,2.5913,2.5931,2.5938,2.5951,2.5862,2.5863,2.5862,2.5862,2.5587,2.5601,2.5614,2.5634,2.5658,2.5702,2.5704,2.5742,2.5784,2.5797,2.5816,2.5837,2.5842,2.5857,2.5865,2.5878,2.5773,2.5773,2.5773,2.5539,2.5557,2.5552,2.5596,2.5632,2.5661,2.5665,2.5685,2.5738,2.577,2.5808,2.5812,2.5846,2.5855,2.5885,2.5897,2.5921,0,0]}]]